Location: Unspecified
(0.0000°N, 0.0000°E)
Time: 20:33:06
(UTC+00:00)

STARLINK-11601 [DTC] - Visible Passes

Search period start: 09 June 2026 00:00
Search period end: 19 June 2026 00:00
Orbit: 355 x 357 km, 43.0° (Epoch: 8 June)

Date Brightness Start Highest point End Pass type
(mag) Time Alt. Az. Time Alt. Az. Time Alt. Az.
12 Jun ? 19:47:45 10° NNW 19:48:32 16° NNW 19:48:32 16° NNW visible
13 Jun ? 18:39:30 10° NNE 18:40:22 11° NE 18:41:15 10° ENE visible
14 Jun ? 19:02:47 10° NW 19:05:40 66° NE 19:06:29 40° ESE visible
15 Jun ? 19:28:32 10° W 19:30:33 17° SW 19:30:45 17° SW visible
17 Jun ? 18:42:00 10° WSW 18:43:31 13° SW 18:45:02 10° SSW visible
